Location: ???????
(60.4260°N, 46.9069°E)
Time: 05:48:25
(UTC+00:00)

CZ-2C R/B - Pass Details

Date: 30 March 2020
Orbit: 669 x 783 km, 98.2° (Epoch: 05 June)

Event Time Altitude Azimuth Distance (km) Brightness Sun altitude
Rises 00:22:25 0° 20° (NNE) 3,099 6.6 -14.4°
Reaches altitude 10° 00:24:59 10° 32° (NNE) 2,159 6.0 -14.1°
Maximum altitude 00:29:03 28° 92° (E) 1,273 4.3 -13.7°
Drops below altitude 10° 00:33:01 10° 152° (SSE) 2,108 4.7 -13.3°
Sets 00:35:30 0° 164° (SSE) 3,011 5.4 -13.1°
